Regional Weather Roundup
Issued by NWS

Home | Current Version | Previous Version | Graphics & Text | Print | Product List | Glossary On
Versions: 1 2 3 4 5 6 7 8 9 10 11 12 13 14 15 16 17 18 19 20 21 22 23 24 25 26 27 28 29 30 31 32 33 34 35 36 37 38 39 40 41 42 43 44 45 46 47 48 49 50
000
ASUS43 KMPX 251210
RWRMN
WEATHER ROUNDUP FOR MINNESOTA
NATIONAL WEATHER SERVICE TWIN CITIES/CHANHASSEN MN
700 AM CDT FRI JUL 25 2014


NOTE: "FAIR" INDICATES FEW OR NO CLOUDS BELOW 12,000 FEET WITH NO
SIGNIFICANT WEATHER AND/OR OBSTRUCTIONS TO VISIBILITY. N/A MEANS
CURRENT SKY AND/OR WEATHER CONDITIONS ARE NOT AVAILABLE.

MNZ060>063-068>070-251300-
   Twin Cities Metro

CITY           SKY/WX    TMP DP  RH WIND       PRES   REMARKS
TWIN CITIES    CLOUDY    64  63  96 SE14G22   29.79F
6HR MIN TEMP:  64; 6HR MAX TEMP:  69; 6HR PCP:  0.41;

ST PAUL        LGT RAIN  64  62  93 S15G24    29.81F
CRYSTAL        LGT RAIN  65  61  87 SE17      29.78F
BLAINE         LGT RAIN  66  64  94 S12       29.81R
LAKEVILLE      LGT RAIN  63  61  94 SE7       29.84R
EDEN PRAIRIE   LGT RAIN  65  63  93 S10       29.81F
6HR MIN TEMP:  64; 6HR MAX TEMP:  68; 6HR PCP:  0.39;

SOUTH ST PAUL  LGT RAIN  64  62  93 S13       29.81F
$$
MNZ001>005-007-008-013>017-022>024-027-028-251300-
   Northwest Minnesota

CITY           SKY/WX    TMP DP  RH WIND       PRES   REMARKS
BEMIDJI        PTSUNNY   64  59  83 SE10      29.75S
HALLOCK        CLOUDY    66  63  88 CALM      29.72R
ROSEAU         PTSUNNY   63  57  82 E3        29.74F
WARROAD        PTSUNNY   63  59  88 E3        29.75F
THIEF RVR FALL MOCLDY    64  61  88 SE8       29.71F
CROOKSTON      MOCLDY    66  61  82 S14       29.69F
FOSSTON        PTCLDY    63  59  88 S7        29.74F
DETROIT LAKES  MOCLDY    64  61  88 SE12      29.77F
MOORHEAD       PTCLDY    66  66 100 S6        29.73F
PARK RAPIDS    MOCLDY    62  60  93 SE8       29.80R
$$
MNZ006-009>011-018-025>026-251300-
   North Central Minnesota

CITY           SKY/WX    TMP DP  RH WIND       PRES   REMARKS
BAUDETTE       MOSUNNY   63  59  87 SE3       29.77S
FLAG ISLAND    MOSUNNY   66  61  82 SE9       29.74S
INTL FALLS     PTSUNNY   62  59  90 SE6       29.78F
6HR MIN TEMP:  57; 6HR MAX TEMP:  62; 6HR PCP:  0.01;

WASKISH        MOSUNNY   63  61  94 CALM      29.74F
BIG FORK       PTSUNNY   63  61  94 E2        29.79F
LONGVILLE      CLOUDY    63  61  94 S7        29.78F
GRAND RAPIDS   CLOUDY    63  59  88 S7        29.80R
CRANE LAKE     MOSUNNY   57  57 100 CALM      29.82F FOG
ORR            PTSUNNY   61  55  82 SE3       29.79S
COOK           PTSUNNY   61  59  94 SE3       29.82F
$$
MNZ012-019>021-037-251300-
   Northeast Minnesota

CITY           SKY/WX    TMP DP  RH WIND       PRES   REMARKS
DULUTH         CLOUDY    62  57  83 SE7       29.84S
6HR MIN TEMP:  61; 6HR MAX TEMP:  66; 6HR PCP: TRACE;

ELY            CLOUDY    61  57  88 S3        29.83F
HIBBING        CLOUDY    62  58  86 SE5       29.81F
EVELETH        CLOUDY    59  59 100 E3        29.84F
DULUTH HARBOR  CLOUDY    57  55  94 NE9       29.85F
TWO HARBORS    CLOUDY    59  54  82 CALM      29.85R
SILVER BAY     CLOUDY    57  57 100 CALM      29.85R
GRAND MARAIS     N/A     53  50  89 CALM      29.85S
G MARAIS ARPRT MOSUNNY   57  54  88 CALM      29.88S
$$
MNZ029>031-032-039>041-046>048-054>057-064-251300-
   West Central Minnesota

CITY           SKY/WX    TMP DP  RH WIND       PRES   REMARKS
FERGUS FALLS   PTCLDY    64  61  88 SE6       29.75S
WHEATON        PTCLDY    61  61 100 E6        29.76R
MORRIS         MOCLDY    64  63  94 SE10      29.73S
ALEXANDRIA     CLOUDY    63  61  93 E3        29.78F
ELBOW LAKE     FAIR      63  62  96 SE8       29.74F
WADENA         CLOUDY    63  61  94 E5        29.79R
GLENWOOD       CLOUDY    64  63  94 S7        29.79R
APPLETON       MOCLDY    64  63  94 SE5       29.73S
BENSON         CLOUDY    64  63  94 S7        29.75R
ORTONVILLE     MOCLDY    64  61  88 E8        29.74R
MADISON        CLOUDY    68  64  88 S10       29.71F
WILLMAR        FAIR      64  63  94 S5        29.79S
$$
MNZ033>034-036-042>043-049>051-058-059-251300-
   Central Minnesota

CITY           SKY/WX    TMP DP  RH WIND       PRES   REMARKS
ST CLOUD       CLOUDY    66  62  87 S3        29.82R
6HR MIN TEMP:  65; 6HR MAX TEMP:  69; 6HR PCP:  0.42;

SAUK CENTRE    PTSUNNY   63  62  97 NE9       29.80R
PAYNESVILLE    CLOUDY    62  62  99 E7        29.78R
AITKIN         CLOUDY    64  61  88 S12       29.77F
PINE RIVER     CLOUDY    63  61  94 SE7       29.83S
BRAINERD       CLOUDY    63  61  93 S6        29.83R
STAPLES        CLOUDY    63  61  94 SE6       29.80R
LONG PRAIRIE   CLOUDY    63  61  94 NE3       29.81R
LITTLE FALLS   CLOUDY    63  59  88 CALM      29.83F
LITCHFIELD     CLOUDY    64  64 100 SE8       29.78F
BUFFALO        CLOUDY    64  61  90 SE10G20   29.78S
MAPLE LAKE     CLOUDY    65  64  96 S6        29.78F
$$
MNZ037-044-045-052-053-251300-
   East Central Minnesota

CITY           SKY/WX    TMP DP  RH WIND       PRES   REMARKS
PRINCETON      LGT RAIN  64  63  94 NW5       29.87R
MORA           CLOUDY    61  57  88 CALM      29.85R
CAMBRIDGE      RAIN      64  57  77 SE10      29.77S
RUSH CITY      LGT RAIN  64  61  91 SE7       29.81F
MOOSE LAKE     LGT RAIN  63  59  88 SE3       29.83F
HINCKLEY       RAIN      63  63 100 CALM      29.86R
CLOQUET        LGT RAIN  63  57  82 NE5       29.84F
MCGREGOR       CLOUDY    63  61  94 S13G22    29.77F
$$
MNZ071>073-080-081-089-090-097-098-251300-
   Southwest Minnesota

CITY           SKY/WX    TMP DP  RH WIND       PRES   REMARKS
MONTEVIDEO     CLOUDY    64  64 100 S7        29.75F
GRANITE FALLS  MOCLDY    65  63  91 E8        29.75F
CANBY          CLOUDY    66  63  90 SE9       29.70F
MARSHALL       MOCLDY    66  61  82 S20G28    29.70F
REDWOOD FALLS  CLOUDY    67  64  90 S7        29.78R
OLIVIA         CLOUDY    64  63  94 E6        29.77R
PIPESTONE      MOCLDY    64  61  88 S17G24    29.78S
WINDOM         CLOUDY    66  63  88 S18G25    29.80F
WORTHINGTON    MOCLDY    66  61  82 S22G29    29.79F
JACKSON        TSTM      64  61  88 S17G25    29.85F
TRACY          CLOUDY    67  63  88 S23G31    29.75S
SLAYTON        CLOUDY    64  62  94 S15G21    29.80S
$$
MNZ065>067-074>077-082>085-091>093-251300-
   South Central Minnesota

CITY           SKY/WX    TMP DP  RH WIND       PRES   REMARKS
MANKATO        CLOUDY    64  59  82 S10G18    29.82R
NEW ULM        CLOUDY    64  64 100 S12       29.79F
ST JAMES       TSTM      66  66 100 S18G28    29.78F
FAIRMONT       CLOUDY    66  61  82 S21G26    29.85S THUNDER
GLENCOE        CLOUDY    65  62  89 SE12      29.81R
FARIBAULT      CLOUDY    66  61  82 SE7       29.86R
OWATONNA       CLOUDY    64  61  88 SE12G18   29.84R
WASECA         CLOUDY    61  55  82 SE8       29.86R
ALBERT LEA     CLOUDY    64  63  94 S14G21    29.84F
$$
MNZ078>079-086>088-094>096-251300-
   Southeast Minnesota

CITY           SKY/WX    TMP DP  RH WIND       PRES   REMARKS
ROCHESTER      LGT RAIN  62  59  90 SE16G25   29.85F
6HR MIN TEMP:  62; 6HR MAX TEMP:  66; 6HR PCP:  0.43;

RED WING       RAIN      64  63  94 SW5       29.84F
STANTON        CLOUDY    64  61  88 S9G16     29.83S
DODGE CENTER   CLOUDY    63  61  94 SE13G23   29.85F
WINONA         LGT RAIN  63  59  88 S6        29.92F
AUSTIN         LGT RAIN  63  61  94 S9G18     29.85F
PRESTON        RAIN      61  61 100 SE12      29.92F
$$
ABBREVIATIONS USED IN REMARKS
   TC - TEMPERATURES IN CELSIUS
  WCI - WIND CHILL INDEX
   HX - HEAT INDEX
  VSB - VISIBILITY
$$


USA.gov is the U.S. government's official web portal to all federal, state and local government web resources and services.